Weather History for VTCH - February, 2014

Change the Weather History Date:

Wednesday, February 12, 2014

  Actual Average Record
Temperature  
Mean Temperature 73 °F -  
Max Temperature 88 °F 93 °F - ()
Min Temperature 58 °F 59 °F - ()
Cooling Degree Days 8    
Growing Degree Days 23 (Base 50)    
Moisture  
Dew Point 58 °F    
Average Humidity 61    
Maximum Humidity 94    
Minimum Humidity 31    
Precipitation  
Precipitation 0.00 in 0.00 in - ()
Sea Level Pressure  
Sea Level Pressure 29.83 in    
Wind  
Wind Speed 1 mph ()    
Max Wind Speed 5 mph    
Max Gust Speed -    
Visibility 4.7 miles    
Events Fog    
T = Trace of Precipitation, MM = Missing Value Source: Averaged Metar Reports

Daily Weather History Graph

Daily Weather History Graph

Search for Another Location

Airport or City:

Trip Planner

Search our weather history database for the weather conditions in past years. The results will help you decide how hot, cold, wet, or windy it might be!

Date:

Astronomy

Feb. 12, 2014 Rise Set
Actual Time 6:58 AM ICT 6:26 PM ICT
Civil Twilight 6:35 AM ICT 6:49 PM ICT
Nautical Twilight 6:09 AM ICT 7:14 PM ICT
Astronomical Twilight 5:44 AM ICT 7:40 PM ICT
Moon 4:19 PM ICT (2/12) 4:45 AM ICT (2/12)
Length of Visible Light 12h 13m
Length of Day
11h 28m
Waxing Gibbous, 93% of the Moon is Illuminated
Feb 12
Waxing Gibbous
Feb 15
Full
Feb 23
Last Quarter
Mar 1
New
Mar 8
First Quarter

Hourly Weather History & Observations

Time (ICT) Temp. Heat Index Dew Point Humidity Pressure Visibility Wind Dir Wind Speed Gust Speed Precip Events Conditions
1:00 AM 65 °F - 63 °F 89% 29.83 in 5 mi Calm Calm - -   Mist
4:00 AM 61 °F - 59 °F 92% 29.82 in 4 mi Calm Calm - -   Mist
7:00 AM 60 °F - 59 °F 94% 29.86 in 0 mi Calm Calm - - Fog Heavy Fog
7:00 AM 59.0 °F - 55.4 °F 88% 29.86 in 0.5 mi NNE 2.3 mph - N/A Fog Fog
8:00 AM 59.0 °F - 57.2 °F 94% 29.89 in 0.3 mi Variable 2.3 mph - N/A Fog Fog
9:00 AM 60.8 °F - 59.0 °F 94% 29.89 in 1.2 mi Calm Calm - N/A   Scattered Clouds
10:00 AM 68 °F - 62 °F 74% 29.91 in 5 mi Calm Calm - -   Mist
10:00 AM 68.0 °F - 57.2 °F 68% 29.92 in 3.7 mi Variable 2.3 mph - N/A   Partly Cloudy
11:00 AM 73.4 °F - 57.2 °F 57% 29.92 in 5.0 mi Calm Calm - N/A   Partly Cloudy
12:00 PM 77.0 °F - 57.2 °F 50% 29.89 in 6.2 mi Variable 2.3 mph - N/A   Partly Cloudy
1:00 PM 80 °F - 61 °F 41% 29.82 in 6 mi WSW 3.5 mph - -   Partly Cloudy
1:00 PM 82.4 °F 81.7 °F 55.4 °F 39% 29.83 in 6.2 mi Variable 4.6 mph - N/A   Partly Cloudy
2:00 PM 86.0 °F 84.5 °F 55.4 °F 35% 29.80 in 6.2 mi South 4.6 mph - N/A   Partly Cloudy
3:00 PM 87.8 °F 85.7 °F 53.6 °F 31% 29.77 in 6.2 mi West 3.5 mph - N/A   Partly Cloudy
4:00 PM 87 °F - 61 °F 31% 29.72 in 7 mi Calm Calm - -   Scattered Clouds
4:00 PM 87.8 °F 85.7 °F 53.6 °F 31% 29.74 in 6.2 mi West 4.6 mph - N/A   Partly Cloudy
5:00 PM 87.8 °F 85.7 °F 53.6 °F 31% 29.74 in 6.2 mi WSW 3.5 mph - N/A   Partly Cloudy
6:00 PM 82.4 °F 82.5 °F 59.0 °F 45% 29.77 in 6.2 mi Variable 2.3 mph - N/A   Partly Cloudy
7:00 PM 78 °F - 65 °F 56% 29.75 in 7 mi Calm Calm - -   Scattered Clouds
10:00 PM 68 °F - 63 °F 80% 29.86 in 6 mi Calm Calm - -